[[{"header":{"parameterUnit":"m.s-1","parameterCategory":1,"la1":30.2991,"la2":30.254,"lo1":-89.0895,"lo2":-89.0444,"dy":0.0017,"dx":0.0017,"nx":28,"ny":28,"refTime":"2023-06-27T21:00:00:Z","depth":0,"parameterNumber":2,"parameterNumberName":"U-component_of_WINDS"},"data":[0,0,0,0,0,0,0,0,0,0,0,0,0,0,0,0,0,0,0,0,0,0,0,0,0,0,0,0,0,0,0,0,0,0,0,0,0,0,0,0,0,0,0,0,0,0,0,0,0,0,0,0,0,0,0,0,0,0,0.5214,0.522,0,0.5741,0.5747,0.5753,0.6004,0.6003,0.6003,0.6003,0.6558,0.6572,0.6587,0,0,0,0,0,0,0,0,0,0,0,0,0,0.4432,0.4445,0.5214,0.522,0.5227,0.574,0.5747,0.5755,0.6004,0.6003,0.6003,0.6003,0.6553,0.657,0.6588,0,0,0,0,0,0,0,0,0,0,0,0,0,0.4847,0.445,0.5213,0.5413,0.5436,0.5739,0.5748,0.5757,0.6004,0.6003,0.6003,0.6002,0.6547,0.6569,0.6591,0.6739,0,0,0.666,0.667,0,0,0,0,0,0,0,0,0.4823,0.4875,0.5377,0.5399,0.5426,0.5806,0.5676,0.6087,0.6004,0.5789,0.6003,0.6002,0.6309,0.6351,0.6451,0.6765,0.6789,0.6662,0.6676,0.6685,0.6692,0,0,0,0,0,0,0,0.4794,0.4854,0.5423,0.5384,0.5414,0.5479,0.5537,0.5755,0.6045,0.5807,0.5827,0.5885,0.6322,0.6429,0.6466,0.6797,0.6661,0.6681,0.6695,0.6704,0.7255,0.7256,0,0,0,0,0,0,0.4731,0.4829,0.5406,0.5439,0.5117,0.5493,0.5559,0.5685,0.6044,0.6097,0.5885,0.5894,0.6391,0.644,0.6487,0.6683,0.6685,0.6706,0.6719,0.7254,0.7255,0.7256,0,0,0,0,0,0,0.4713,0.478,0.5385,0.5139,0.5221,0.5507,0.5647,0.5695,0.5802,0.6102,0.6156,0.594,0.6392,0.6455,0.6673,0.6705,0.6716,0.6737,0.7252,0.7254,0.7256,0.7075,0,0,0,0,0,0,0.469,0.4772,0.483,0.5138,0.5233,0.5559,0.5649,0.5706,0.5839,0.5856,0.6168,0.6219,0.6397,0.6637,0.6695,0.6737,0.6755,0.7251,0.7253,0.7255,0.708,0.707,0.7062,0,0,0,0,0,0.4661,0.4763,0.4832,0.49,0.5311,0.556,0.5615,0.5813,0.584,0.5902,0.6093,0.6209,0.669,0.6657,0.6725,0.6773,0.725,0.7253,0.7255,0.7083,0.7072,0.7063,0,0,0,0,0,0,0.446,0.4808,0.4888,0.5092,0.5293,0.5602,0.5687,0.5796,0.5999,0.6008,0.6249,0.6317,0.6512,0.6665,0.6622,0.6933,0.6981,0.6997,0.6828,0.682,0.6811,0.6773,0.6773,0,0,0,0,0,0.4437,0.4607,0.4903,0.5055,0.5151,0.5399,0.5516,0.5649,0.5871,0.596,0.6168,0.6381,0.6581,0.6708,0.6908,0.71,0.7172,0.7166,0.7157,0.7149,0.7162,0.7272,0.7273,0.7264,0.7264,0.7264,0,0,0.4398,0.4608,0.4702,0.5019,0.5192,0.5364,0.5471,0.5652,0.5783,0.599,0.6206,0.6364,0.6619,0.6822,0.6923,0.6956,0.7178,0.7152,0.7143,0.7161,0.7274,0.7275,0.7275,0.7266,0.7266,0.7265,0,0,0.4412,0.4587,0.473,0.4897,0.5153,0.5317,0.5349,0.564,0.5751,0.597,0.6127,0.6288,0.6627,0.68,0.6933,0.7,0.7115,0.7058,0.7016,0.7121,0.7121,0.7123,0.7148,0.7154,0.7069,0.7068,0.7068,0,0.4331,0.4594,0.4792,0.4961,0.5095,0.528,0.5428,0.5583,0.5893,0.5983,0.6012,0.6436,0.6621,0.6866,0.6881,0.6982,0.7029,0.7028,0.7104,0.7108,0.7113,0.7139,0.7148,0.706,0.7061,0.7062,0.7062,0,0.4481,0.466,0.4746,0.5032,0.5176,0.5333,0.5557,0.5679,0.5796,0.5956,0.6175,0.6401,0.6648,0.6715,0.6836,0.6977,0.6988,0.7057,0.7111,0.7102,0.7131,0.7142,0.7048,0.7051,0.7053,0.7055,0,0,0.4395,0.4778,0.4807,0.4937,0.5227,0.5372,0.5535,0.577,0.587,0.6075,0.622,0.6496,0.656,0.6709,0.685,0.694,0.6978,0.6999,0.7009,0.6989,0.7147,0.7095,0.7103,0.7052,0.7054,0.7057,0.7126,0,0.4451,0.4749,0.4927,0.5154,0.5321,0.5494,0.5637,0.5831,0.5982,0.6149,0.6318,0.651,0.6579,0.6669,0.6766,0.6952,0.7013,0.6949,0.7193,0.72,0.7128,0.7119,0.7067,0.7122,0.7138,0.714,0.7142,0,0.456,0.4751,0.4992,0.5257,0.5334,0.5459,0.5685,0.584,0.6063,0.6167,0.6327,0.6466,0.6647,0.6679,0.6933,0.6885,0.6994,0.7099,0.7106,0.7141,0.7173,0.7156,0.7145,0.7153,0.7161,0.716,0.7158,0,0.4472,0.4791,0.4975,0.5081,0.5395,0.5478,0.5613,0.5835,0.5962,0.616,0.6246,0.6463,0.6584,0.6751,0.6944,0.695,0.7178,0.7228,0.7272,0.7267,0.7319,0.7314,0.7327,0.7381,0.738,0.738,0.738,0,0.452,0.4661,0.4939,0.5053,0.5215,0.5417,0.5573,0.5724,0.5917,0.6065,0.6228,0.6364,0.6609,0.6775,0.6928,0.7114,0.7167,0.7258,0.7298,0.7246,0.7235,0.7326,0.7328,0.7383,0.7382,0.7382,0.7381,0,0.4453,0.4645,0.4857,0.5132,0.5204,0.5311,0.5549,0.5667,0.5821,0.6006,0.6061,0.6307,0.651,0.6716,0.6994,0.7096,0.7279,0.7331,0.7202,0.7225,0.7258,0.7253,0.7334,0.7355,0.7389,0.7388,0.7388,0,0.4473,0.4584,0.4867,0.4973,0.5102,0.5274,0.5401,0.5603,0.573,0.5986,0.6073,0.6286,0.6468,0.6785,0.6991,0.7202,0.7263,0.7276,0.7297,0.724,0.7266,0.7258,0.7271,0.7271,0.7269,0.7268,0.7267,0,0.4487,0.4573,0.4748,0.4954,0.5099,0.5273,0.5454,0.5533,0.5769,0.5904,0.6109,0.6249,0.6526,0.6736,0.697,0.7114,0.7231,0.7257,0.7279,0.723,0.7151,0.7195,0.7184,0.7257,0.7258,0.7259,0.7259,0.726,0.4467,0.4571,0.4784,0.4972,0.5126,0.5288,0.541,0.5575,0.5748,0.5985,0.6094,0.63,0.6516,0.684,0.698,0.7146,0.7179,0.7211,0.722,0.7225,0.7213,0.7118,0.719,0.719,0.7191,0.7191,0.7192,0,0.4491,0.4633,0.4803,0.5044,0.5191,0.5277,0.548,0.5599,0.5775,0.5964,0.6135,0.637,0.6572,0.6789,0.7005,0.7096,0.7154,0.7146,0.7144,0.7175,0.7171,0.7131,0.7094,0.7094,0.7094,0.7094,0.7094,0.7094,0.4521,0.4701,0.4811,0.5068,0.5213,0.541,0.5517,0.5668,0.5818,0.607,0.6236,0.6372,0.6573,0.6802,0.6992,0.7051,0.7124,0.71,0.7174,0.7168,0.7176,0.7183,0.7147,0.7114,0.7114,0.7166,0.7166,0.7166]},{"header":{"parameterUnit":"m.s-1","parameterCategory":1,"la1":30.2991,"la2":30.254,"lo1":-89.0895,"lo2":-89.0444,"dy":0.0017,"dx":0.0017,"nx":28,"ny":28,"refTime":"2023-06-27T21:00:00:Z","depth":0,"parameterNumber":3,"parameterNumberName":"V-component_of_WINDS"},"data":[0,0,0,0,0,0,0,0,0,0,0,0,0,0,0,0,0,0,0,0,0,0,0,0,0,0,0,0,0,0,0,0,0,0,0,0,0,0,0,0,0,0,0,0,0,0,0,0,0,0,0,0,0,0,0,0,0,0,-3.9914,-3.9913,0,-3.98,-3.9799,-3.9798,-3.9898,-3.9902,-3.9906,-3.991,-3.9762,-3.9754,-3.9746,0,0,0,0,0,0,0,0,0,0,0,0,0,-4.0193,-4.0188,-3.9914,-3.9913,-3.9911,-3.98,-3.9799,-3.9797,-3.9897,-3.9902,-3.9907,-3.9912,-3.9764,-3.9755,-3.9746,0,0,0,0,0,0,0,0,0,0,0,0,0,-4.0074,-4.0186,-3.9914,-3.9949,-3.9951,-3.9801,-3.9799,-3.9797,-3.9896,-3.9902,-3.9909,-3.9915,-3.9768,-3.9756,-3.9744,-3.9545,0,0,-3.9708,-3.9703,0,0,0,0,0,0,0,0,-4.0081,-4.0063,-3.9945,-3.9946,-3.9948,-3.9871,-3.9843,-3.9711,-3.9894,-3.9915,-3.991,-3.9918,-3.9791,-3.9777,-3.9741,-3.9538,-3.9532,-3.9707,-3.97,-3.9695,-3.9692,0,0,0,0,0,0,0,-4.0089,-4.0069,-3.9868,-3.9943,-3.9945,-3.9961,-3.9952,-3.9819,-3.9818,-3.9914,-3.9921,-3.9908,-3.9792,-3.9752,-3.9738,-3.953,-3.9708,-3.9697,-3.969,-3.9685,-3.9158,-3.9152,0,0,0,0,0,0,-4.0097,-4.0075,-3.9872,-3.9865,-4.0032,-3.9951,-3.994,-3.9888,-3.982,-3.9816,-3.9903,-3.9913,-3.9769,-3.9752,-3.9733,-3.9494,-3.9695,-3.9684,-3.9677,-3.9165,-3.9157,-3.9149,0,0,0,0,0,0,-4.0103,-4.0078,-3.9876,-3.9972,-3.9948,-3.994,-3.9881,-3.9883,-3.9843,-3.9812,-3.981,-3.9863,-3.9774,-3.975,-3.9594,-3.949,-3.9679,-3.9668,-3.9173,-3.9162,-3.9153,-3.9014,0,0,0,0,0,0,-4.0111,-4.008,-4.0009,-3.997,-3.9943,-3.9745,-3.9875,-3.9876,-3.9826,-3.9838,-3.9774,-3.9769,-3.9777,-3.9611,-3.9582,-3.9477,-3.9659,-3.9182,-3.9168,-3.9156,-3.9027,-3.9,-3.8977,0,0,0,0,0,-4.012,-3.9967,-4.0005,-3.9979,-3.9855,-3.9739,-3.9722,-3.9743,-3.9818,-3.9742,-3.9724,-3.9771,-3.951,-3.9594,-3.9562,-3.9452,-3.9188,-3.9172,-3.9157,-3.9039,-3.9005,-3.8977,0,0,0,0,0,0,-3.998,-3.9962,-4.0003,-3.9835,-3.979,-3.9756,-3.9661,-3.9707,-3.9629,-3.9643,-3.9664,-3.9648,-3.9483,-3.9454,-3.9548,-3.9257,-3.9359,-3.9337,-3.928,-3.9248,-3.9224,-3.9229,-3.9649,0,0,0,0,0,-3.9933,-3.9849,-3.9834,-3.9686,-3.9663,-3.9667,-3.9616,-3.9639,-3.9587,-3.9564,-3.9534,-3.9474,-3.9379,-3.9313,-3.9224,-3.9029,-3.9012,-3.8938,-3.8912,-3.8892,-3.8867,-3.876,-3.8725,-3.9098,-3.9098,-3.9098,0,0,-3.9826,-3.9807,-3.9749,-3.9658,-3.9625,-3.9529,-3.9648,-3.9541,-3.9467,-3.9544,-3.9396,-3.9374,-3.9308,-3.9131,-3.9051,-3.9101,-3.8764,-3.8872,-3.8856,-3.8842,-3.874,-3.8704,-3.8673,-3.9087,-3.9089,-3.9091,0,0,-3.9584,-3.9565,-3.944,-3.9408,-3.9362,-3.9367,-3.9338,-3.9301,-3.9291,-3.9147,-3.9203,-3.9113,-3.8949,-3.89,-3.8854,-3.8606,-3.8644,-3.8576,-3.8437,-3.8332,-3.8303,-3.8276,-3.8181,-3.8148,-3.8555,-3.8554,-3.8554,0,-3.9454,-3.9322,-3.9366,-3.9258,-3.9213,-3.9296,-3.9164,-3.9128,-3.9049,-3.9013,-3.9075,-3.8875,-3.8836,-3.8648,-3.8589,-3.8551,-3.8511,-3.8576,-3.8306,-3.828,-3.8255,-3.8165,-3.813,-3.8546,-3.8547,-3.8548,-3.8549,0,-3.9163,-3.907,-3.8974,-3.891,-3.8856,-3.8736,-3.8755,-3.8695,-3.8725,-3.8722,-3.8572,-3.8533,-3.8436,-3.8396,-3.8418,-3.8211,-3.8243,-3.8305,-3.8406,-3.8211,-3.8125,-3.8091,-3.8534,-3.8537,-3.8539,-3.8541,0,0,-3.8814,-3.8788,-3.875,-3.8723,-3.8684,-3.8607,-3.8492,-3.8411,-3.8355,-3.8302,-3.8198,-3.8064,-3.8124,-3.8071,-3.8091,-3.8,-3.78,-3.8073,-3.8071,-3.8016,-3.7562,-3.7509,-3.7468,-3.7833,-3.7826,-3.7821,-3.7566,0,-3.8566,-3.8374,-3.8415,-3.8222,-3.8134,-3.8216,-3.8115,-3.8075,-3.8072,-3.7991,-3.7984,-3.7886,-3.7976,-3.7945,-3.786,-3.7843,-3.7707,-3.7863,-3.7725,-3.772,-3.7729,-3.7425,-3.7367,-3.7127,-3.7533,-3.7528,-3.7524,0,-3.8246,-3.8194,-3.7996,-3.7976,-3.794,-3.7848,-3.7778,-3.7704,-3.766,-3.7664,-3.7613,-3.7651,-3.7528,-3.7644,-3.747,-3.7575,-3.7523,-3.7507,-3.7499,-3.7476,-3.7601,-3.7385,-3.7051,-3.7011,-3.7473,-3.7477,-3.7481,0,-3.8003,-3.7883,-3.775,-3.7725,-3.7699,-3.7632,-3.7616,-3.7582,-3.7531,-3.7468,-3.7434,-3.7355,-3.7307,-3.7242,-3.7256,-3.7339,-3.7076,-3.7193,-3.7067,-3.7066,-3.6996,-3.6998,-3.6639,-3.6981,-3.6981,-3.6982,-3.6983,0,-3.7715,-3.7588,-3.7642,-3.7557,-3.7417,-3.7466,-3.7323,-3.7316,-3.7286,-3.7196,-3.7262,-3.7175,-3.7205,-3.7117,-3.7128,-3.6979,-3.6959,-3.6952,-3.6953,-3.694,-3.6939,-3.6896,-3.6909,-3.6972,-3.6974,-3.6976,-3.6978,0,-3.7413,-3.7446,-3.7304,-3.7298,-3.7293,-3.7189,-3.7178,-3.7096,-3.7106,-3.6991,-3.6967,-3.6975,-3.6876,-3.689,-3.6775,-3.6783,-3.6596,-3.6623,-3.6613,-3.6615,-3.6485,-3.6494,-3.6077,-3.6021,-3.6408,-3.6405,-3.6402,0,-3.7221,-3.7128,-3.7116,-3.7067,-3.705,-3.6968,-3.6922,-3.6968,-3.6914,-3.6863,-3.6785,-3.6697,-3.6625,-3.6463,-3.6452,-3.6366,-3.6384,-3.6246,-3.637,-3.636,-3.6371,-3.6373,-3.6361,-3.6215,-3.6211,-3.6207,-3.6205,0,-3.6875,-3.6899,-3.6835,-3.6776,-3.6722,-3.6675,-3.6633,-3.6587,-3.663,-3.6565,-3.6473,-3.6419,-3.6312,-3.6217,-3.6139,-3.6113,-3.616,-3.6169,-3.6133,-3.6111,-3.6106,-3.6099,-3.6534,-3.6174,-3.6177,-3.6179,-3.6181,-3.6182,-3.6617,-3.6538,-3.6519,-3.6445,-3.6423,-3.6385,-3.6309,-3.6315,-3.6241,-3.6163,-3.6195,-3.6086,-3.6047,-3.5949,-3.5916,-3.5826,-3.5876,-3.5826,-3.5811,-3.5795,-3.5777,-3.6133,-3.5813,-3.5814,-3.5815,-3.5815,-3.5816,0,-3.6267,-3.6263,-3.6197,-3.6143,-3.6084,-3.6155,-3.6114,-3.6056,-3.5964,-3.593,-3.5864,-3.5756,-3.5669,-3.5658,-3.5573,-3.5503,-3.5523,-3.5478,-3.5477,-3.5469,-3.5741,-3.5777,-3.5464,-3.5464,-3.5464,-3.5464,-3.5464,-3.5464,-3.6078,-3.5948,-3.597,-3.5829,-3.5824,-3.5727,-3.5697,-3.5661,-3.5634,-3.5515,-3.5447,-3.5447,-3.5419,-3.5336,-3.5256,-3.5255,-3.5215,-3.516,-3.5165,-3.5416,-3.545,-3.5483,-3.5517,-3.5154,-3.5153,-3.49,-3.4898,-3.4896]}]]